This is the latest recevied weather packets stored in our database for station/object KE5VT. If no packets are shown the sender has not sent any weather packets the latest 10 day(s).
| Time | Temp. | Humidity | Pressure | Rain* | Wind** | Luminosity | Snow |
|---|---|---|---|---|---|---|---|
| 1777589981 | 21.67° C | 61% | 1005.7 hPa | 0 mm | - | 49 W/m² | - |
| 1777589677 | 22.22° C | 61% | 1005.8 hPa | 0 mm | - | 54 W/m² | - |
| 1777589375 | 22.22° C | 62% | 1005.8 hPa | 0 mm | - | 54 W/m² | - |
| 1777589071 | 22.78° C | 60% | 1005.7 hPa | 0 mm | - | 65 W/m² | - |
| 1777588767 | 23.33° C | 62% | 1005.9 hPa | 0 mm | - | 70 W/m² | - |
| 1777588463 | 23.33° C | 61% | 1005.6 hPa | 0 mm | - | 96 W/m² | - |
| 1777588164 | 23.33° C | 59% | 1005.7 hPa | 0 mm | - | 98 W/m² | - |
| 1777587860 | 23.33° C | 59% | 1005.4 hPa | 0 mm | - | 99 W/m² | - |
| 1777587556 | 23.33° C | 59% | 1005.5 hPa | 0 mm | - | 97 W/m² | - |
| 1777587251 | 23.33° C | 57% | 1005.5 hPa | 0 mm | - | 108 W/m² | - |
| 1777586947 | 23.33° C | 59% | 1005.4 hPa | 0 mm | - | 98 W/m² | - |
| 1777586642 | 23.33° C | 59% | 1005.4 hPa | 0 mm | - | 98 W/m² | - |
| 1777586338 | 22.78° C | 60% | 1005.3 hPa | 0 mm | - | 163 W/m² | - |
| 1777586037 | 22.78° C | 60% | 1005.2 hPa | 0 mm | - | 157 W/m² | - |
| 1777585736 | 23.33° C | 56% | 1005.2 hPa | 0 mm | - | 154 W/m² | - |
| 1777585436 | 22.78° C | 58% | 1005.3 hPa | 0 mm | - | 191 W/m² | - |
| 1777585131 | 22.78° C | 58% | 1005.3 hPa | 0 mm | - | 59 W/m² | - |
| 1777584828 | 22.78° C | 56% | 1005.4 hPa | 0 mm | - | 59 W/m² | - |
| 1777584526 | 22.78° C | 57% | 1005.4 hPa | 0 mm | - | 65 W/m² | - |
| 1777584222 | 22.78° C | 57% | 1005.4 hPa | 0 mm | - | 86 W/m² | - |
| 1777583921 | 23.33° C | 57% | 1005.4 hPa | 0 mm | - | 101 W/m² | - |
| 1777583618 | 22.78° C | 56% | 1005.4 hPa | 0 mm | - | 124 W/m² | - |
| 1777583317 | 23.33° C | 55% | 1005.5 hPa | 0 mm | - | 130 W/m² | - |
| 1777583017 | 23.89° C | 54% | 1005.3 hPa | 0 mm | - | 129 W/m² | - |
| 1777582715 | 24.44° C | 51% | 1005.4 hPa | 0 mm | - | 463 W/m² | - |
* Rain latest hour (hover to see other rain measurements)
** Current wind speed in m/s (hover to see current wind gust speed)